This is the latest recevied weather packets stored in our database for station/object YO3FVR-WX. If no packets are shown the sender has not sent any weather packets the latest 10 day(s).
| Time | Temp. | Humidity | Pressure | Rain* | Wind** | Luminosity | Snow |
|---|---|---|---|---|---|---|---|
| 1777576726 | 6.11° C | 87% | 1021.1 hPa | 0.25 mm | - | - | - |
| 1777575526 | 6.11° C | 87% | 1021.1 hPa | 0.25 mm | - | - | - |
| 1777574325 | 6.11° C | 87% | 1020.8 hPa | 0 mm | - | - | - |
| 1777573125 | 6.11° C | 87% | 1020.8 hPa | 0.25 mm | - | - | - |
| 1777571895 | 6.11° C | 88% | 1020.8 hPa | 0.25 mm | - | - | - |
| 1777570695 | 5.56° C | 88% | 1020.6 hPa | 0.25 mm | - | - | - |
| 1777569466 | 5.56° C | 88% | 1020.3 hPa | 0.25 mm | - | - | - |
| 1777568236 | 5.56° C | 88% | 1020.2 hPa | 0.25 mm | - | - | - |
| 1777567006 | 5.56° C | 88% | 1019.9 hPa | 0.25 mm | - | - | - |
| 1777565777 | 5.56° C | 87% | 1019.8 hPa | 0.25 mm | - | - | - |
| 1777564547 | 5.56° C | 87% | 1019.8 hPa | 0.25 mm | - | - | - |
| 1777563345 | 5.56° C | 87% | 1019.6 hPa | 0.76 mm | - | - | - |
| 1777562119 | 5.56° C | 87% | 1019.6 hPa | 0.25 mm | - | - | - |
| 1777560916 | 5.56° C | 87% | 1019.5 hPa | 0.25 mm | - | - | - |
| 1777559687 | 5.56° C | 87% | 1019.4 hPa | 0.25 mm | - | - | - |
| 1777558486 | 5° C | 87% | 1019.3 hPa | 0.25 mm | - | - | - |
| 1777557285 | 5° C | 87% | 1019.3 hPa | 0.25 mm | - | - | - |
| 1777556085 | 5° C | 87% | 1019.3 hPa | 0.25 mm | - | - | - |
| 1777554859 | 5.56° C | 87% | 1019.3 hPa | 0.76 mm | - | - | - |
| 1777553656 | 5.56° C | 86% | 1019.3 hPa | 0.76 mm | - | - | - |
| 1777552445 | 5.56° C | 86% | 1019.3 hPa | 0.76 mm | - | - | - |
| 1777551209 | 5.56° C | 86% | 1019.3 hPa | 0.76 mm | - | - | - |
| 1777549996 | 5.56° C | 86% | 1019.3 hPa | 1.27 mm | - | - | - |
| 1777548796 | 5.56° C | 86% | 1019.2 hPa | 1.52 mm | - | - | - |
| 1777547573 | 5.56° C | 86% | 1019 hPa | 0.76 mm | - | - | - |
* Rain latest hour (hover to see other rain measurements)
** Current wind speed in m/s (hover to see current wind gust speed)